User: anonymous   Login
Location: Campo Alegre
(10.1673°N, 67.4431°W)
Time: 00:07:32
(UTC+00:00)
Language:

IUS-13 SRM-1 - Orbit

View from above orbital plane
View from above orbital plane
View from above satellite
View from above satellite

Ground track
Ground track

The orbit data is extracted from the following two-line orbital elements,

1 22315U 93003C   24172.99563575  .00008900  00000-0  94287-3 0  9993
2 22315  26.9238  77.0912 6155183 232.4624  54.1641  3.84184353352700
Epoch (UTC): 20 June 2024 23:53:42
Eccentricity: 0.6155183
inclination: 26.9238°
perigee height: 243 km
apogee height: 21441 km
right ascension of ascending node: 77.0912°
argument of perigee: 232.4624°
revolutions per day: 3.84184353
mean anomaly at epoch: 54.1641°
orbit number at epoch: 35270

The dashed part of the orbit path shows where the satellite is in the earth's shadow,  

DLR